Time,TemperatureF,DewpointF,PressureIn,WindDirection,WindDirectionDegrees,WindSpeedMPH,WindSpeedGustMPH,Humidity,HourlyPrecipIn,Conditions,Clouds,dailyrainin,SoftwareType,DateUTC
2013-04-26 00:02:00,33.8,30.3,30.26,SE,129,0.0,1.0,87,0.00,,,0.00,Wunderground v.1.15,2013-04-26 05:02:00,
2013-04-26 00:08:00,33.8,30.3,30.26,ENE,71,0.0,1.0,87,0.00,,,0.00,Wunderground v.1.15,2013-04-26 05:08:00,
2013-04-26 00:14:00,33.8,30.3,30.26,NE,46,0.0,1.0,87,0.00,,,0.00,Wunderground v.1.15,2013-04-26 05:14:00,
2013-04-26 00:20:00,34.1,30.6,30.26,SE,142,0.0,0.0,87,0.00,,,0.00,Wunderground v.1.15,2013-04-26 05:20:00,
2013-04-26 00:26:00,34.1,30.4,30.26,East,82,0.0,0.0,86,0.00,,,0.00,Wunderground v.1.15,2013-04-26 05:26:00,
2013-04-26 00:32:00,34.2,30.4,30.26,SE,142,0.0,0.0,86,0.00,,,0.00,Wunderground v.1.15,2013-04-26 05:32:00,
2013-04-26 00:38:00,34.5,30.5,30.26,SE,135,0.0,0.0,85,0.00,,,0.00,Wunderground v.1.15,2013-04-26 05:38:00,
2013-04-26 00:44:00,34.8,30.5,30.26,ESE,110,0.0,0.0,84,0.00,,,0.00,Wunderground v.1.15,2013-04-26 05:44:00,
2013-04-26 00:50:00,35.1,30.8,30.27,SSE,150,0.0,0.0,84,0.00,,,0.00,Wunderground v.1.15,2013-04-26 05:50:00,
2013-04-26 00:56:00,35.2,30.9,30.27,SE,139,0.0,1.0,84,0.00,,,0.00,Wunderground v.1.15,2013-04-26 05:56:00,
2013-04-26 01:02:00,35.4,30.8,30.26,SSE,155,0.0,0.0,83,0.00,,,0.00,Wunderground v.1.15,2013-04-26 06:02:00,
2013-04-26 01:08:00,35.2,30.6,30.26,SSE,149,0.0,1.0,83,0.00,,,0.00,Wunderground v.1.15,2013-04-26 06:08:00,
2013-04-26 01:14:00,34.8,30.5,30.27,SE,138,1.0,1.0,84,0.00,,,0.00,Wunderground v.1.15,2013-04-26 06:14:00,
2013-04-26 01:20:00,34.6,30.3,30.27,SSE,158,1.0,1.0,84,0.00,,,0.00,Wunderground v.1.15,2013-04-26 06:20:00,
2013-04-26 01:26:00,34.6,30.3,30.27,SE,142,1.0,1.0,84,0.00,,,0.00,Wunderground v.1.15,2013-04-26 06:26:00,
2013-04-26 01:32:00,34.8,30.5,30.26,SE,142,1.0,1.0,84,0.00,,,0.00,Wunderground v.1.15,2013-04-26 06:32:00,
2013-04-26 01:38:00,34.9,30.6,30.27,SE,127,1.0,1.0,84,0.00,,,0.00,Wunderground v.1.15,2013-04-26 06:38:00,
2013-04-26 01:44:00,34.7,30.4,30.26,SSE,156,1.0,1.0,84,0.00,,,0.00,Wunderground v.1.15,2013-04-26 06:44:00,
2013-04-26 01:50:00,34.6,30.3,30.27,SSE,152,0.0,1.0,84,0.00,,,0.00,Wunderground v.1.15,2013-04-26 06:50:00,
2013-04-26 01:56:00,34.5,30.2,30.26,SSE,148,0.0,1.0,84,0.00,,,0.00,Wunderground v.1.15,2013-04-26 06:56:00,
2013-04-26 02:02:00,34.5,30.5,30.27,SE,142,0.0,1.0,85,0.00,,,0.00,Wunderground v.1.15,2013-04-26 07:02:00,
2013-04-26 02:08:00,34.5,30.5,30.27,SE,136,1.0,2.0,85,0.00,,,0.00,Wunderground v.1.15,2013-04-26 07:08:00,
2013-04-26 02:14:00,34.5,30.5,30.27,SSE,155,1.0,1.0,85,0.00,,,0.00,Wunderground v.1.15,2013-04-26 07:14:00,
2013-04-26 02:20:00,34.4,30.4,30.27,South,169,0.0,1.0,85,0.00,,,0.00,Wunderground v.1.15,2013-04-26 07:20:00,
2013-04-26 02:26:00,34.3,30.3,30.27,SSE,167,1.0,1.0,85,0.00,,,0.00,Wunderground v.1.15,2013-04-26 07:26:00,
2013-04-26 02:32:00,34.2,30.2,30.27,SE,136,1.0,1.0,85,0.00,,,0.00,Wunderground v.1.15,2013-04-26 07:32:00,
2013-04-26 02:38:00,34.3,30.3,30.27,SE,141,1.0,2.0,85,0.00,,,0.00,Wunderground v.1.15,2013-04-26 07:38:00,
2013-04-26 02:44:00,34.3,30.3,30.27,SSE,148,1.0,2.0,85,0.00,,,0.00,Wunderground v.1.15,2013-04-26 07:44:00,
2013-04-26 02:50:00,34.3,30.3,30.27,ESE,121,1.0,1.0,85,0.00,,,0.00,Wunderground v.1.15,2013-04-26 07:50:00,
2013-04-26 02:56:00,34.5,30.5,30.27,SSE,156,1.0,2.0,85,0.00,,,0.00,Wunderground v.1.15,2013-04-26 07:56:00,
2013-04-26 03:02:00,34.5,30.5,30.27,SE,142,1.0,2.0,85,0.00,,,0.00,Wunderground v.1.15,2013-04-26 08:02:00,
2013-04-26 03:09:00,34.5,30.2,30.27,SE,137,1.0,3.0,84,0.00,,,0.00,Wunderground v.1.15,2013-04-26 08:09:00,
2013-04-26 03:14:00,34.5,30.2,30.27,SE,132,1.0,1.0,84,0.00,,,0.00,Wunderground v.1.15,2013-04-26 08:14:00,
2013-04-26 03:20:00,34.5,30.2,30.27,SE,136,1.0,1.0,84,0.00,,,0.00,Wunderground v.1.15,2013-04-26 08:20:00,
2013-04-26 03:26:00,34.5,30.2,30.27,SE,141,1.0,1.0,84,0.00,,,0.00,Wunderground v.1.15,2013-04-26 08:26:00,
2013-04-26 03:32:00,34.4,30.1,30.27,SE,145,1.0,2.0,84,0.00,,,0.00,Wunderground v.1.15,2013-04-26 08:32:00,
2013-04-26 03:38:00,34.4,30.1,30.27,SSE,152,1.0,2.0,84,0.00,,,0.00,Wunderground v.1.15,2013-04-26 08:38:00,
2013-04-26 03:44:00,34.4,30.1,30.27,SSE,154,1.0,2.0,84,0.00,,,0.00,Wunderground v.1.15,2013-04-26 08:44:00,
2013-04-26 03:50:00,34.3,30.0,30.27,SSE,159,0.0,0.0,84,0.00,,,0.00,Wunderground v.1.15,2013-04-26 08:50:00,
2013-04-26 03:56:00,34.1,29.8,30.27,East,99,0.0,0.0,84,0.00,,,0.00,Wunderground v.1.15,2013-04-26 08:56:00,
2013-04-26 04:02:00,34.0,29.7,30.27,SSE,150,0.0,1.0,84,0.00,,,0.00,Wunderground v.1.15,2013-04-26 09:02:00,
2013-04-26 04:08:00,34.0,29.7,30.27,SE,142,1.0,1.0,84,0.00,,,0.00,Wunderground v.1.15,2013-04-26 09:08:00,
2013-04-26 04:14:00,33.9,29.6,30.27,SSE,150,1.0,1.0,84,0.00,,,0.00,Wunderground v.1.15,2013-04-26 09:14:00,
2013-04-26 04:20:00,33.9,29.9,30.27,ESE,115,0.0,0.0,85,0.00,,,0.00,Wunderground v.1.15,2013-04-26 09:20:00,
2013-04-26 04:26:00,33.8,29.8,30.27,SSE,149,0.0,1.0,85,0.00,,,0.00,Wunderground v.1.15,2013-04-26 09:26:00,
2013-04-26 04:32:00,33.6,29.6,30.27,SE,145,0.0,0.0,85,0.00,,,0.00,Wunderground v.1.15,2013-04-26 09:32:00,
2013-04-26 04:38:00,33.5,29.8,30.27,SE,141,0.0,1.0,86,0.00,,,0.00,Wunderground v.1.15,2013-04-26 09:38:00,
2013-04-26 04:44:00,33.5,29.8,30.27,SE,145,0.0,1.0,86,0.00,,,0.00,Wunderground v.1.15,2013-04-26 09:44:00,
2013-04-26 04:50:00,33.5,29.8,30.27,SSE,155,1.0,1.0,86,0.00,,,0.00,Wunderground v.1.15,2013-04-26 09:50:00,
2013-04-26 04:56:00,33.5,29.8,30.27,ENE,69,0.0,1.0,86,0.00,,,0.00,Wunderground v.1.15,2013-04-26 09:56:00,
2013-04-26 05:02:00,33.5,29.8,30.27,ESE,117,0.0,1.0,86,0.00,,,0.00,Wunderground v.1.15,2013-04-26 10:02:00,
2013-04-26 05:08:00,33.6,29.9,30.27,SE,142,0.0,1.0,86,0.00,,,0.00,Wunderground v.1.15,2013-04-26 10:08:00,
2013-04-26 05:14:00,33.6,29.9,30.27,SSE,152,1.0,1.0,86,0.00,,,0.00,Wunderground v.1.15,2013-04-26 10:14:00,
2013-04-26 05:20:00,33.7,30.0,30.27,SSE,156,1.0,1.0,86,0.00,,,0.00,Wunderground v.1.15,2013-04-26 10:20:00,
2013-04-26 05:26:00,33.7,30.0,30.27,SSE,150,1.0,1.0,86,0.00,,,0.00,Wunderground v.1.15,2013-04-26 10:26:00,
2013-04-26 05:32:00,33.8,30.1,30.28,SSE,152,0.0,1.0,86,0.00,,,0.00,Wunderground v.1.15,2013-04-26 10:32:00,
2013-04-26 05:38:00,33.9,30.2,30.28,SSE,158,1.0,1.0,86,0.00,,,0.00,Wunderground v.1.15,2013-04-26 10:38:00,
2013-04-26 05:44:00,34.0,30.0,30.28,SE,135,1.0,2.0,85,0.00,,,0.00,Wunderground v.1.15,2013-04-26 10:44:00,
2013-04-26 05:50:00,34.1,30.1,30.28,SE,134,1.0,3.0,85,0.00,,,0.00,Wunderground v.1.15,2013-04-26 10:50:00,
2013-04-26 05:56:00,34.2,30.2,30.28,ESE,102,1.0,3.0,85,0.00,,,0.00,Wunderground v.1.15,2013-04-26 10:56:00,
2013-04-26 06:02:00,34.3,30.0,30.28,SSE,149,1.0,2.0,84,0.00,,,0.00,Wunderground v.1.15,2013-04-26 11:02:00,
2013-04-26 06:08:00,34.5,30.2,30.28,ESE,121,1.0,2.0,84,0.00,,,0.00,Wunderground v.1.15,2013-04-26 11:08:00,
2013-04-26 06:14:00,34.6,30.3,30.28,SSE,155,1.0,3.0,84,0.00,,,0.00,Wunderground v.1.15,2013-04-26 11:14:00,
2013-04-26 06:20:00,34.6,30.3,30.28,SSE,153,1.0,1.0,84,0.00,,,0.00,Wunderground v.1.15,2013-04-26 11:20:00,
2013-04-26 06:26:00,34.8,30.5,30.29,SSE,157,1.0,1.0,84,0.00,,,0.00,Wunderground v.1.15,2013-04-26 11:26:00,
2013-04-26 06:32:00,34.9,30.6,30.29,SE,135,1.0,1.0,84,0.00,,,0.00,Wunderground v.1.15,2013-04-26 11:32:00,
2013-04-26 06:38:00,35.1,30.5,30.29,SE,142,1.0,3.0,83,0.00,,,0.00,Wunderground v.1.15,2013-04-26 11:38:00,
2013-04-26 06:44:00,35.2,30.6,30.29,SSE,149,1.0,1.0,83,0.00,,,0.00,Wunderground v.1.15,2013-04-26 11:44:00,
2013-04-26 06:50:00,35.4,30.8,30.29,East,87,1.0,2.0,83,0.00,,,0.00,Wunderground v.1.15,2013-04-26 11:50:00,
2013-04-26 06:56:00,35.5,30.5,30.29,SSE,154,1.0,2.0,82,0.00,,,0.00,Wunderground v.1.15,2013-04-26 11:56:00,
2013-04-26 07:02:00,35.7,31.0,30.29,SE,136,1.0,1.0,83,0.00,,,0.00,Wunderground v.1.15,2013-04-26 12:02:00,
2013-04-26 07:08:00,35.9,30.9,30.30,SSE,152,1.0,2.0,82,0.00,,,0.00,Wunderground v.1.15,2013-04-26 12:08:00,
2013-04-26 07:14:00,36.0,31.3,30.30,SE,139,1.0,2.0,83,0.00,,,0.00,Wunderground v.1.15,2013-04-26 12:14:00,
2013-04-26 07:20:00,36.3,31.6,30.30,SE,143,1.0,1.0,83,0.00,,,0.00,Wunderground v.1.15,2013-04-26 12:20:00,
2013-04-26 07:26:00,36.8,32.1,30.30,SE,145,1.0,1.0,83,0.00,,,0.00,Wunderground v.1.15,2013-04-26 12:26:00,
2013-04-26 07:32:00,37.2,32.2,30.30,SSE,148,1.0,1.0,82,0.00,,,0.00,Wunderground v.1.15,2013-04-26 12:32:00,
2013-04-26 07:38:00,37.6,32.3,30.30,SE,129,1.0,2.0,81,0.00,,,0.00,Wunderground v.1.15,2013-04-26 12:38:00,
2013-04-26 07:44:00,38.3,32.7,30.30,SE,128,1.0,2.0,80,0.00,,,0.00,Wunderground v.1.15,2013-04-26 12:44:00,
2013-04-26 07:50:00,39.2,32.9,30.30,SSE,155,1.0,3.0,78,0.00,,,0.00,Wunderground v.1.15,2013-04-26 12:50:00,
2013-04-26 07:56:00,39.9,32.9,30.30,SSE,156,2.0,3.0,76,0.00,,,0.00,Wunderground v.1.15,2013-04-26 12:56:00,
2013-04-26 08:02:00,40.5,33.2,30.30,ESE,117,2.0,2.0,75,0.00,,,0.00,Wunderground v.1.15,2013-04-26 13:02:00,
2013-04-26 08:08:00,41.0,33.0,30.30,SE,141,2.0,2.0,73,0.00,,,0.00,Wunderground v.1.15,2013-04-26 13:08:00,
2013-04-26 08:14:00,41.2,33.2,30.30,SSE,149,2.0,4.0,73,0.00,,,0.00,Wunderground v.1.15,2013-04-26 13:14:00,
2013-04-26 08:20:00,41.6,33.6,30.30,SE,145,2.0,3.0,73,0.00,,,0.00,Wunderground v.1.15,2013-04-26 13:20:00,
2013-04-26 08:26:00,42.3,33.9,30.30,SE,134,2.0,3.0,72,0.00,,,0.00,Wunderground v.1.15,2013-04-26 13:26:00,
2013-04-26 08:32:00,42.7,33.9,30.30,ESE,114,2.0,2.0,71,0.00,,,0.00,Wunderground v.1.15,2013-04-26 13:32:00,
2013-04-26 08:38:00,43.4,34.3,30.30,SSE,148,2.0,3.0,70,0.00,,,0.00,Wunderground v.1.15,2013-04-26 13:38:00,
2013-04-26 08:44:00,44.2,34.7,30.30,SSW,194,2.0,2.0,69,0.00,,,0.00,Wunderground v.1.15,2013-04-26 13:44:00,
2013-04-26 08:50:00,44.7,34.4,30.30,SSE,149,2.0,8.0,67,0.00,,,0.00,Wunderground v.1.15,2013-04-26 13:50:00,
2013-04-26 08:56:00,45.5,35.2,30.29,ESE,120,3.0,8.0,67,0.00,,,0.00,Wunderground v.1.15,2013-04-26 13:56:00,
2013-04-26 09:02:00,46.4,34.9,30.29,SE,132,2.0,2.0,64,0.00,,,0.00,Wunderground v.1.15,2013-04-26 14:02:00,
2013-04-26 09:08:00,46.8,35.3,30.29,South,184,3.0,8.0,64,0.00,,,0.00,Wunderground v.1.15,2013-04-26 14:08:00,
2013-04-26 09:14:00,47.6,35.2,30.29,South,170,3.0,4.0,62,0.00,,,0.00,Wunderground v.1.15,2013-04-26 14:14:00,
2013-04-26 09:20:00,48.0,34.8,30.28,ESE,120,3.0,3.0,60,0.00,,,0.00,Wunderground v.1.15,2013-04-26 14:20:00,
2013-04-26 09:26:00,48.2,35.0,30.28,South,170,2.0,3.0,60,0.00,,,0.00,Wunderground v.1.15,2013-04-26 14:26:00,
2013-04-26 09:32:00,48.1,34.4,30.29,SE,145,3.0,3.0,59,0.00,,,0.00,Wunderground v.1.15,2013-04-26 14:32:00,
2013-04-26 09:38:00,48.8,34.2,30.29,SE,136,3.0,6.0,57,0.00,,,0.00,Wunderground v.1.15,2013-04-26 14:38:00,
2013-04-26 09:44:00,49.2,34.2,30.29,SSE,148,3.0,6.0,56,0.00,,,0.00,Wunderground v.1.15,2013-04-26 14:44:00,
2013-04-26 09:50:00,50.2,35.1,30.30,SSW,199,3.0,3.0,56,0.00,,,0.00,Wunderground v.1.15,2013-04-26 14:50:00,
2013-04-26 09:56:00,50.3,33.8,30.30,SSE,156,2.0,3.0,53,0.00,,,0.00,Wunderground v.1.15,2013-04-26 14:56:00,
2013-04-26 10:02:00,49.5,33.5,30.30,SE,126,2.0,5.0,54,0.00,,,0.00,Wunderground v.1.15,2013-04-26 15:02:00,
2013-04-26 10:08:00,49.0,33.1,30.30,West,259,2.0,5.0,54,0.00,,,0.00,Wunderground v.1.15,2013-04-26 15:08:00,
2013-04-26 10:14:00,48.4,32.5,30.30,ESE,117,3.0,8.0,54,0.00,,,0.00,Wunderground v.1.15,2013-04-26 15:14:00,
2013-04-26 10:20:00,47.8,32.4,30.30,SSW,194,4.0,4.0,55,0.00,,,0.00,Wunderground v.1.15,2013-04-26 15:20:00,
2013-04-26 10:26:00,47.6,32.7,30.30,NNE,28,3.0,4.0,56,0.00,,,0.00,Wunderground v.1.15,2013-04-26 15:26:00,
2013-04-26 10:32:00,47.5,33.0,30.31,SE,134,2.0,5.0,57,0.00,,,0.00,Wunderground v.1.15,2013-04-26 15:32:00,
2013-04-26 10:38:00,46.4,34.5,30.31,SE,142,3.0,5.0,63,0.00,,,0.00,Wunderground v.1.15,2013-04-26 15:38:00,
2013-04-26 10:44:00,45.7,35.4,30.31,SSE,155,3.0,3.0,67,0.00,,,0.00,Wunderground v.1.15,2013-04-26 15:44:00,
2013-04-26 10:50:00,45.5,34.8,30.31,SE,136,3.0,3.0,66,0.00,,,0.00,Wunderground v.1.15,2013-04-26 15:50:00,
2013-04-26 10:56:00,45.9,35.9,30.30,East,84,2.0,3.0,68,0.00,,,0.00,Wunderground v.1.15,2013-04-26 15:56:00,
2013-04-26 11:02:00,46.1,35.4,30.30,ESE,121,2.0,3.0,66,0.00,,,0.00,Wunderground v.1.15,2013-04-26 16:02:00,
2013-04-26 11:08:00,46.4,35.7,30.30,SE,134,3.0,3.0,66,0.00,,,0.00,Wunderground v.1.15,2013-04-26 16:08:00,
2013-04-26 11:14:00,46.5,35.7,30.29,WSW,255,3.0,4.0,66,0.00,,,0.00,Wunderground v.1.15,2013-04-26 16:14:00,
2013-04-26 11:20:00,46.5,35.0,30.29,SSE,160,4.0,4.0,64,0.00,,,0.00,Wunderground v.1.15,2013-04-26 16:20:00,
2013-04-26 11:26:00,46.9,35.7,30.28,SSW,201,3.0,4.0,65,0.00,,,0.00,Wunderground v.1.15,2013-04-26 16:26:00,
2013-04-26 11:32:00,47.0,35.0,30.27,South,187,4.0,8.0,63,0.00,,,0.00,Wunderground v.1.15,2013-04-26 16:32:00,
2013-04-26 11:38:00,47.0,35.0,30.26,SSE,150,4.0,8.0,63,0.00,,,0.00,Wunderground v.1.15,2013-04-26 16:38:00,
2013-04-26 11:44:00,47.2,34.8,30.26,SSE,166,4.0,5.0,62,0.00,,,0.00,Wunderground v.1.15,2013-04-26 16:44:00,
2013-04-26 11:50:00,47.6,34.4,30.26,ESE,114,5.0,5.0,60,0.00,,,0.00,Wunderground v.1.15,2013-04-26 16:50:00,
2013-04-26 11:56:00,48.2,35.0,30.26,South,186,4.0,5.0,60,0.00,,,0.00,Wunderground v.1.15,2013-04-26 16:56:00,
2013-04-26 12:02:00,48.1,34.4,30.25,South,179,4.0,6.0,59,0.00,,,0.00,Wunderground v.1.15,2013-04-26 17:02:00,
2013-04-26 12:08:00,48.1,34.0,30.25,SSE,165,4.0,7.0,58,0.00,,,0.00,Wunderground v.1.15,2013-04-26 17:08:00,
2013-04-26 12:14:00,48.1,34.4,30.25,SE,136,4.0,6.0,59,0.00,,,0.00,Wunderground v.1.15,2013-04-26 17:14:00,
2013-04-26 12:20:00,48.1,34.0,30.26,SE,139,4.0,4.0,58,0.00,,,0.00,Wunderground v.1.15,2013-04-26 17:20:00,
2013-04-26 12:26:00,48.7,34.1,30.25,SSE,149,3.0,4.0,57,0.00,,,0.00,Wunderground v.1.15,2013-04-26 17:26:00,
2013-04-26 12:32:00,49.1,33.6,30.25,East,86,4.0,6.0,55,0.00,,,0.00,Wunderground v.1.15,2013-04-26 17:32:00,
2013-04-26 12:38:00,49.7,34.2,30.24,South,170,4.0,6.0,55,0.00,,,0.00,Wunderground v.1.15,2013-04-26 17:38:00,
2013-04-26 12:44:00,49.9,33.9,30.25,SE,129,5.0,8.0,54,0.00,,,0.00,Wunderground v.1.15,2013-04-26 17:44:00,
2013-04-26 12:50:00,50.3,33.8,30.24,SSE,160,5.0,5.0,53,0.00,,,0.00,Wunderground v.1.15,2013-04-26 17:50:00,
2013-04-26 12:56:00,51.0,34.0,30.24,SSE,162,5.0,7.0,52,0.00,,,0.00,Wunderground v.1.15,2013-04-26 17:56:00,
2013-04-26 13:02:00,51.6,34.0,30.24,SE,139,5.0,5.0,51,0.00,,,0.00,Wunderground v.1.15,2013-04-26 18:02:00,
2013-04-26 13:08:00,52.2,34.6,30.24,SSE,160,4.0,5.0,51,0.00,,,0.00,Wunderground v.1.15,2013-04-26 18:08:00,
2013-04-26 13:14:00,52.4,34.8,30.23,SSE,149,5.0,6.0,51,0.00,,,0.00,Wunderground v.1.15,2013-04-26 18:14:00,
2013-04-26 13:20:00,52.7,34.6,30.23,SSE,167,4.0,4.0,50,0.00,,,0.00,Wunderground v.1.15,2013-04-26 18:20:00,
2013-04-26 13:26:00,52.5,34.4,30.23,SSE,150,4.0,5.0,50,0.00,,,0.00,Wunderground v.1.15,2013-04-26 18:26:00,
2013-04-26 13:32:00,53.0,35.3,30.23,SE,145,4.0,4.0,51,0.00,,,0.00,Wunderground v.1.15,2013-04-26 18:32:00,
2013-04-26 13:38:00,53.8,35.6,30.22,SSE,158,3.0,4.0,50,0.00,,,0.00,Wunderground v.1.15,2013-04-26 18:38:00,
2013-04-26 13:44:00,53.8,35.1,30.21,East,100,3.0,3.0,49,0.00,,,0.00,Wunderground v.1.15,2013-04-26 18:44:00,
2013-04-26 13:50:00,53.9,35.7,30.21,SSE,166,3.0,6.0,50,0.00,,,0.00,Wunderground v.1.15,2013-04-26 18:50:00,
2013-04-26 13:56:00,54.9,36.6,30.21,SE,139,3.0,6.0,50,0.00,,,0.00,Wunderground v.1.15,2013-04-26 18:56:00,
2013-04-26 14:02:00,55.6,35.7,30.20,SSE,154,4.0,4.0,47,0.00,,,0.00,Wunderground v.1.15,2013-04-26 19:02:00,
2013-04-26 14:08:00,55.7,36.3,30.20,SE,136,4.0,7.0,48,0.00,,,0.00,Wunderground v.1.15,2013-04-26 19:08:00,
2013-04-26 14:14:00,55.9,36.5,30.19,SSE,167,4.0,5.0,48,0.00,,,0.00,Wunderground v.1.15,2013-04-26 19:14:00,
2013-04-26 14:20:00,55.9,36.5,30.19,SE,141,4.0,4.0,48,0.00,,,0.00,Wunderground v.1.15,2013-04-26 19:20:00,
2013-04-26 14:26:00,56.8,37.8,30.18,SE,141,5.0,5.0,49,0.00,,,0.00,Wunderground v.1.15,2013-04-26 19:26:00,
2013-04-26 14:32:00,58.2,38.1,30.18,NW,307,5.0,5.0,47,0.00,,,0.00,Wunderground v.1.15,2013-04-26 19:32:00,
2013-04-26 14:38:00,59.3,37.9,30.18,ENE,69,5.0,9.0,45,0.00,,,0.00,Wunderground v.1.15,2013-04-26 19:38:00,
2013-04-26 14:44:00,60.4,38.9,30.17,South,181,4.0,5.0,45,0.00,,,0.00,Wunderground v.1.15,2013-04-26 19:44:00,
2013-04-26 14:50:00,60.4,38.4,30.17,SE,136,4.0,8.0,44,0.00,,,0.00,Wunderground v.1.15,2013-04-26 19:50:00,
2013-04-26 14:56:00,60.3,38.3,30.16,SSW,203,5.0,8.0,44,0.00,,,0.00,Wunderground v.1.15,2013-04-26 19:56:00,
2013-04-26 15:02:00,60.5,39.0,30.16,SSE,160,5.0,8.0,45,0.00,,,0.00,Wunderground v.1.15,2013-04-26 20:02:00,
2013-04-26 15:08:00,60.5,38.5,30.15,SSE,148,5.0,8.0,44,0.00,,,0.00,Wunderground v.1.15,2013-04-26 20:08:00,
2013-04-26 15:14:00,60.9,38.2,30.15,SSW,203,4.0,7.0,43,0.00,,,0.00,Wunderground v.1.15,2013-04-26 20:14:00,
2013-04-26 15:20:00,61.5,38.2,30.15,SSE,150,4.0,4.0,42,0.00,,,0.00,Wunderground v.1.15,2013-04-26 20:20:00,
2013-04-26 15:26:00,61.4,36.8,30.14,SSE,153,5.0,7.0,40,0.00,,,0.00,Wunderground v.1.15,2013-04-26 20:26:00,
2013-04-26 15:32:00,61.6,36.4,30.14,SSE,150,4.0,5.0,39,0.00,,,0.00,Wunderground v.1.15,2013-04-26 20:32:00,
2013-04-26 15:38:00,61.8,35.9,30.14,SSW,195,5.0,7.0,38,0.00,,,0.00,Wunderground v.1.15,2013-04-26 20:38:00,
2013-04-26 15:44:00,61.5,35.6,30.14,SSE,155,6.0,9.0,38,0.00,,,0.00,Wunderground v.1.15,2013-04-26 20:44:00,
2013-04-26 15:51:00,61.2,36.0,30.13,SE,143,5.0,5.0,39,0.00,,,0.00,Wunderground v.1.15,2013-04-26 20:51:00,
2013-04-26 15:56:00,61.6,36.4,30.13,South,181,4.0,5.0,39,0.00,,,0.00,Wunderground v.1.15,2013-04-26 20:56:00,
2013-04-26 16:02:00,62.1,36.8,30.13,SW,222,4.0,4.0,39,0.00,,,0.00,Wunderground v.1.15,2013-04-26 21:02:00,
2013-04-26 16:08:00,62.7,36.0,30.13,ESE,112,4.0,4.0,37,0.00,,,0.00,Wunderground v.1.15,2013-04-26 21:08:00,
2013-04-26 16:14:00,63.0,37.0,30.13,SE,131,4.0,5.0,38,0.00,,,0.00,Wunderground v.1.15,2013-04-26 21:14:00,
2013-04-26 16:20:00,63.1,36.4,30.13,South,183,3.0,3.0,37,0.00,,,0.00,Wunderground v.1.15,2013-04-26 21:20:00,
2013-04-26 16:26:00,62.6,36.6,30.13,West,273,4.0,4.0,38,0.00,,,0.00,Wunderground v.1.15,2013-04-26 21:26:00,
2013-04-26 16:32:00,63.3,36.6,30.12,WNW,293,3.0,7.0,37,0.00,,,0.00,Wunderground v.1.15,2013-04-26 21:32:00,
2013-04-26 16:38:00,63.5,36.0,30.12,SSE,163,4.0,7.0,36,0.00,,,0.00,Wunderground v.1.15,2013-04-26 21:38:00,
2013-04-26 16:44:00,63.3,35.9,30.12,SSE,155,4.0,7.0,36,0.00,,,0.00,Wunderground v.1.15,2013-04-26 21:44:00,
2013-04-26 16:50:00,63.0,35.6,30.11,ESE,103,5.0,5.0,36,0.00,,,0.00,Wunderground v.1.15,2013-04-26 21:50:00,
2013-04-26 16:56:00,63.4,36.7,30.11,SSW,207,4.0,5.0,37,0.00,,,0.00,Wunderground v.1.15,2013-04-26 21:56:00,
2013-04-26 17:02:00,63.4,36.0,30.11,SSE,162,4.0,7.0,36,0.00,,,0.00,Wunderground v.1.15,2013-04-26 22:02:00,
2013-04-26 17:08:00,63.2,35.8,30.11,SW,217,4.0,7.0,36,0.00,,,0.00,Wunderground v.1.15,2013-04-26 22:08:00,
2013-04-26 17:14:00,63.1,35.7,30.12,SSE,158,3.0,6.0,36,0.00,,,0.00,Wunderground v.1.15,2013-04-26 22:14:00,
2013-04-26 17:20:00,63.0,36.3,30.12,SE,129,2.0,2.0,37,0.00,,,0.00,Wunderground v.1.15,2013-04-26 22:20:00,
2013-04-26 17:26:00,63.0,36.3,30.12,SSE,150,2.0,2.0,37,0.00,,,0.00,Wunderground v.1.15,2013-04-26 22:26:00,
2013-04-26 17:32:00,62.9,36.2,30.13,SE,136,2.0,4.0,37,0.00,,,0.00,Wunderground v.1.15,2013-04-26 22:32:00,
2013-04-26 17:38:00,60.1,35.7,30.13,West,262,3.0,5.0,40,0.00,,,0.00,Wunderground v.1.15,2013-04-26 22:38:00,
2013-04-26 17:44:00,53.9,34.6,30.14,WNW,294,3.0,4.0,48,0.00,,,0.00,Wunderground v.1.15,2013-04-26 22:44:00,
2013-04-26 17:50:00,51.0,34.9,30.14,WNW,297,3.0,3.0,54,0.00,,,0.00,Wunderground v.1.15,2013-04-26 22:50:00,
2013-04-26 17:56:00,49.9,35.3,30.14,WNW,291,2.0,5.0,57,0.00,,,0.00,Wunderground v.1.15,2013-04-26 22:56:00,
2013-04-26 18:02:00,48.7,35.0,30.13,WNW,289,2.0,2.0,59,0.00,,,0.00,Wunderground v.1.15,2013-04-26 23:02:00,
2013-04-26 18:08:00,48.1,34.9,30.13,West,278,1.0,2.0,60,0.00,,,0.00,Wunderground v.1.15,2013-04-26 23:08:00,
2013-04-26 18:14:00,47.5,35.1,30.13,WNW,284,1.0,2.0,62,0.00,,,0.00,Wunderground v.1.15,2013-04-26 23:14:00,
2013-04-26 18:20:00,47.0,35.0,30.13,West,281,1.0,1.0,63,0.00,,,0.00,Wunderground v.1.15,2013-04-26 23:20:00,
2013-04-26 18:26:00,47.0,35.0,30.13,West,274,0.0,1.0,63,0.00,,,0.00,Wunderground v.1.15,2013-04-26 23:26:00,
2013-04-26 18:32:00,46.9,34.6,30.13,WNW,293,1.0,1.0,62,0.00,,,0.00,Wunderground v.1.15,2013-04-26 23:32:00,
2013-04-26 18:38:00,46.9,35.0,30.13,WNW,294,1.0,1.0,63,0.00,,,0.00,Wunderground v.1.15,2013-04-26 23:38:00,
2013-04-26 18:44:00,47.1,35.1,30.13,West,276,1.0,1.0,63,0.00,,,0.00,Wunderground v.1.15,2013-04-26 23:44:00,
2013-04-26 18:50:00,47.0,35.0,30.14,WNW,282,1.0,1.0,63,0.00,,,0.00,Wunderground v.1.15,2013-04-26 23:50:00,
2013-04-26 19:06:00,47.1,35.9,30.14,NE,49,1.0,1.0,65,0.00,,,0.00,Wunderground v.1.15,2013-04-27 00:06:00,
2013-04-26 19:12:00,47.2,36.4,30.14,ENE,64,1.0,1.0,66,0.00,,,0.00,Wunderground v.1.15,2013-04-27 00:12:00,
2013-04-26 19:19:00,47.3,36.5,30.14,ESE,105,0.0,1.0,66,0.00,,,0.00,Wunderground v.1.15,2013-04-27 00:19:00,
2013-04-26 19:24:00,47.6,37.2,30.13,ESE,103,0.0,0.0,67,0.00,,,0.00,Wunderground v.1.15,2013-04-27 00:24:00,
2013-04-26 19:30:00,47.9,38.2,30.13,ESE,103,0.0,0.0,69,0.00,,,0.00,Wunderground v.1.15,2013-04-27 00:30:00,
2013-04-26 19:36:00,48.5,39.2,30.13,ENE,73,0.0,0.0,70,0.00,,,0.00,Wunderground v.1.15,2013-04-27 00:36:00,
2013-04-26 19:42:00,49.2,39.5,30.13,East,83,0.0,1.0,69,0.00,,,0.00,Wunderground v.1.15,2013-04-27 00:42:00,
2013-04-26 19:48:00,50.6,40.0,30.13,SE,141,1.0,1.0,67,0.00,,,0.00,Wunderground v.1.15,2013-04-27 00:48:00,
2013-04-26 19:54:00,52.6,40.4,30.13,NW,316,0.0,1.0,63,0.00,,,0.00,Wunderground v.1.15,2013-04-27 00:54:00,
2013-04-26 20:00:00,54.7,40.6,30.13,SE,145,1.0,1.0,59,0.00,,,0.00,Wunderground v.1.15,2013-04-27 01:00:00,
2013-04-26 20:06:00,56.0,40.5,30.13,SSE,158,1.0,1.0,56,0.00,,,0.00,Wunderground v.1.15,2013-04-27 01:06:00,
2013-04-26 20:12:00,56.7,40.7,30.13,WSW,245,1.0,3.0,55,0.00,,,0.00,Wunderground v.1.15,2013-04-27 01:12:00,
2013-04-26 20:18:00,57.3,40.8,30.13,SSE,152,1.0,3.0,54,0.00,,,0.00,Wunderground v.1.15,2013-04-27 01:18:00,
2013-04-26 20:24:00,58.0,41.0,30.13,SSE,153,3.0,3.0,53,0.00,,,0.00,Wunderground v.1.15,2013-04-27 01:24:00,
2013-04-26 20:30:00,58.2,40.6,30.13,SSE,150,2.0,2.0,52,0.00,,,0.00,Wunderground v.1.15,2013-04-27 01:30:00,
2013-04-26 20:36:00,58.0,40.5,30.13,ESE,111,2.0,2.0,52,0.00,,,0.00,Wunderground v.1.15,2013-04-27 01:36:00,
2013-04-26 20:43:00,58.0,40.5,30.13,SSE,158,2.0,2.0,52,0.00,,,0.00,Wunderground v.1.15,2013-04-27 01:43:00,
2013-04-26 20:48:00,58.0,40.5,30.13,SSE,167,2.0,4.0,52,0.00,,,0.00,Wunderground v.1.15,2013-04-27 01:48:00,
2013-04-26 20:54:00,58.2,40.6,30.13,NNW,338,3.0,4.0,52,0.00,,,0.00,Wunderground v.1.15,2013-04-27 01:54:00,
2013-04-26 21:01:00,58.1,40.6,30.13,South,172,3.0,4.0,52,0.00,,,0.00,Wunderground v.1.15,2013-04-27 02:01:00,
2013-04-26 21:07:00,58.2,40.6,30.13,East,79,3.0,4.0,52,0.00,,,0.00,Wunderground v.1.15,2013-04-27 02:07:00,
2013-04-26 21:12:00,58.3,40.7,30.13,SSE,148,3.0,3.0,52,0.00,,,0.00,Wunderground v.1.15,2013-04-27 02:12:00,
2013-04-26 21:18:00,58.3,41.2,30.13,ESE,114,3.0,3.0,53,0.00,,,0.00,Wunderground v.1.15,2013-04-27 02:18:00,
2013-04-26 21:24:00,58.2,41.1,30.13,West,269,2.0,5.0,53,0.00,,,0.00,Wunderground v.1.15,2013-04-27 02:24:00,
2013-04-26 21:30:00,58.2,41.1,30.13,SE,145,3.0,3.0,53,0.00,,,0.00,Wunderground v.1.15,2013-04-27 02:30:00,
2013-04-26 21:36:00,58.2,41.6,30.13,ESE,113,3.0,4.0,54,0.00,,,0.00,Wunderground v.1.15,2013-04-27 02:36:00,
2013-04-26 21:42:00,58.2,41.6,30.13,SE,128,4.0,10.0,54,0.00,,,0.00,Wunderground v.1.15,2013-04-27 02:42:00,
2013-04-26 21:49:00,58.1,42.0,30.13,ESE,109,4.0,10.0,55,0.00,,,0.00,Wunderground v.1.15,2013-04-27 02:49:00,
2013-04-26 21:54:00,57.9,41.8,30.13,SE,139,3.0,3.0,55,0.00,,,0.00,Wunderground v.1.15,2013-04-27 02:54:00,
2013-04-26 22:01:00,57.7,42.1,30.13,SSE,166,3.0,3.0,56,0.00,,,0.00,Wunderground v.1.15,2013-04-27 03:01:00,
2013-04-26 22:06:00,57.6,42.0,30.13,East,91,3.0,3.0,56,0.00,,,0.00,Wunderground v.1.15,2013-04-27 03:06:00,
2013-04-26 22:12:00,57.6,42.5,30.13,ESE,105,3.0,3.0,57,0.00,,,0.00,Wunderground v.1.15,2013-04-27 03:12:00,
2013-04-26 22:18:00,57.6,42.5,30.13,SSE,156,3.0,7.0,57,0.00,,,0.00,Wunderground v.1.15,2013-04-27 03:18:00,
2013-04-26 22:24:00,57.6,42.5,30.12,SSE,148,4.0,5.0,57,0.00,,,0.00,Wunderground v.1.15,2013-04-27 03:24:00,
2013-04-26 22:30:00,57.2,43.4,30.12,SE,139,3.0,3.0,60,0.00,,,0.00,Wunderground v.1.15,2013-04-27 03:30:00,
2013-04-26 22:36:00,57.0,43.7,30.14,East,83,2.0,3.0,61,0.00,,,0.00,Wunderground v.1.15,2013-04-27 03:36:00,
2013-04-26 22:42:00,56.5,43.6,30.14,East,101,1.0,2.0,62,0.00,,,0.00,Wunderground v.1.15,2013-04-27 03:42:00,
2013-04-26 22:48:00,56.3,43.9,30.14,SSE,152,2.0,5.0,63,0.00,,,0.00,Wunderground v.1.15,2013-04-27 03:48:00,
2013-04-26 22:54:00,56.0,44.0,30.13,SSE,158,3.0,4.0,64,0.00,,,0.01,Wunderground v.1.15,2013-04-27 03:54:00,
2013-04-26 23:01:00,56.1,43.7,30.13,SW,224,3.0,3.0,63,0.00,,,0.00,Wunderground v.1.15,2013-04-27 04:01:00,
2013-04-26 23:02:00,56.1,43.7,30.14,SE,138,3.0,3.0,63,0.00,,,0.00,Wunderground v.1.15,2013-04-27 04:02:00,
2013-04-26 23:08:00,55.9,44.7,30.14,NE,56,2.0,3.0,66,0.00,,,0.00,Wunderground v.1.15,2013-04-27 04:08:00,
2013-04-26 23:14:00,55.0,45.0,30.15,West,271,1.0,2.0,69,0.00,,,0.00,Wunderground v.1.15,2013-04-27 04:14:00,
2013-04-26 23:16:00,54.8,45.2,30.15,West,269,1.0,2.0,70,0.00,,,0.00,Wunderground v.1.15,2013-04-27 04:16:00,
2013-04-26 23:20:00,54.5,44.9,30.15,SW,231,1.0,1.0,70,0.00,,,0.00,Wunderground v.1.15,2013-04-27 04:20:00,
2013-04-26 23:26:00,52.5,42.2,30.17,WNW,283,1.0,3.0,68,0.00,,,0.00,Wunderground v.1.15,2013-04-27 04:26:00,
2013-04-26 23:32:00,50.7,41.6,30.17,West,272,1.0,1.0,71,0.00,,,0.00,Wunderground v.1.15,2013-04-27 04:32:00,
2013-04-26 23:39:00,49.9,42.3,30.17,SE,134,0.0,1.0,75,0.42,,,0.05,Wunderground v.1.15,2013-04-27 04:39:00,
2013-04-26 23:44:00,49.2,43.9,30.16,ENE,64,0.0,1.0,82,0.13,,,0.06,Wunderground v.1.15,2013-04-27 04:44:00,
2013-04-26 23:50:00,48.8,44.5,30.17,West,277,1.0,1.0,85,0.08,,,0.06,Wunderground v.1.15,2013-04-27 04:50:00,
2013-04-26 23:56:00,48.5,45.1,30.17,ENE,64,0.0,1.0,88,0.04,,,0.06,Wunderground v.1.15,2013-04-27 04:56:00,